Location: Makanda
(37.6176°N, 89.2090°W)
Time: 08:11:36
(UTC+00:00)

Resurs 01 Rocket - Pass Details

Date: 23 September 2019
Orbit: 635 x 644 km, 98.0° (Epoch: 20 October)

Event Time Altitude Azimuth Distance (km) Brightness Sun altitude
Exits shadow 01:33:08 18° 39° (NE) 1,593 3.4 -20.2°
Drops below altitude 10° 01:34:53 10° 19° (NNE) 2,043 4.2 -20.5°
Sets 01:37:31 0° 4° (N) 2,959 5.2 -21.0°
